Location: Hartford
(41.7640°N, 72.6860°W)
Time: 14:48:00
(UTC-05:00)

ISS - Visible Passes

Search period start: 20 February 2018 00:00
Search period end: 02 March 2018 00:00
Orbit: 403 x 407 km, 51.6° (Epoch: 21 February)

Date Brightness Start Highest point End Pass type
(mag) Time Alt. Az. Time Alt. Az. Time Alt. Az.
23 Feb -0.3 06:01:28 10° SE 06:02:08 10° SE 06:02:49 10° ESE visible
25 Feb -1.5 05:51:05 10° SSW 05:53:48 25° SE 05:56:32 10° ENE visible
26 Feb -0.8 05:00:05 10° SSE 05:01:44 13° SE 05:03:24 10° E visible
27 Feb -3.3 05:42:20 10° SW 05:45:34 60° SE 05:48:47 10° ENE visible
28 Feb -2.2 04:51:47 20° S 04:53:22 31° SE 04:56:18 10° ENE visible
01 Mar -0.9 04:02:03 15° ESE 04:02:03 15° ESE 04:03:25 10° E visible
01 Mar -3.7 05:34:44 14° WSW 05:37:24 58° NNW 05:40:39 10° NE visible
